| time (UTC) | temp C | wind direction | speed KPH | gust KPH | rain 1hr cm | rain 24hr cm | rain mn cm | humidity % | barometer mb |
| 20260507160901 | 17 | 336 | 1.6 | 8.0 | 0.00 | 0.05 | 0.00 | 43 | 1010.0 |
| 20260507160853 | 17 | 124 | 1.6 | 8.0 | 0.00 | 0.05 | 0.00 | 41 | 1009.9 |
| 20260507160352 | 17 | 331 | 3.2 | 8.0 | 0.00 | 0.05 | 0.00 | 44 | 1009.9 |
| 20260507155357 | 17 | 30 | 0.0 | 4.8 | 0.00 | 0.05 | 0.00 | 46 | 1010.1 |
| 20260507155353 | 17 | 312 | 3.2 | 8.0 | 0.00 | 0.05 | 0.00 | 44 | 1010.0 |
| 20260507155005 | 16 | 326 | 0.0 | 9.7 | 0.00 | 0.05 | 0.00 | 47 | 1010.2 |
| 20260507153854 | 16 | 337 | 3.2 | 11.3 | 0.00 | 0.05 | 0.00 | 46 | 1010.3 |
| 20260507153352 | 16 | 300 | 3.2 | 11.3 | 0.00 | 0.05 | 0.00 | 47 | 1010.2 |
| 20260507152852 | 16 | 250 | 3.2 | 11.3 | 0.00 | 0.05 | 0.00 | 44 | 1010.3 |
| 20260507152352 | 16 | 193 | 1.6 | 20.9 | 0.00 | 0.05 | 0.00 | 49 | 1010.5 |
| 20260507151853 | 15 | 324 | 6.4 | 20.9 | 0.00 | 0.05 | 0.00 | 48 | 1010.4 |
| 20260507151351 | 15 | 296 | 6.4 | 11.3 | 0.00 | 0.05 | 0.00 | 48 | 1010.4 |
| 20260507150851 | 15 | 329 | 3.2 | 8.0 | 0.00 | 0.05 | 0.00 | 50 | 1010.6 |
| 20260507150351 | 15 | 330 | 3.2 | 6.4 | 0.00 | 0.05 | 0.00 | 53 | 1010.7 |
| 20260507145859 | 14 | 330 | 3.2 | 8.0 | 0.00 | 0.05 | 0.00 | 53 | 1011.0 |
| 20260507145852 | 15 | 293 | 1.6 | 4.8 | 0.00 | 0.05 | 0.00 | 52 | 1010.9 |
| 20260507145352 | 14 | 159 | 0.0 | 8.0 | 0.00 | 0.05 | 0.00 | 55 | 1010.8 |
| 20260507144351 | 14 | 303 | 3.2 | 6.4 | 0.00 | 0.05 | 0.00 | 54 | 1011.1 |
| 20260507143850 | 13 | 300 | 0.0 | 4.8 | 0.00 | 0.05 | 0.00 | 57 | 1011.2 |
| 20260507143351 | 13 | 329 | 1.6 | 4.8 | 0.00 | 0.05 | 0.00 | 54 | 1011.2 |
| 20260507142851 | 13 | 327 | 0.0 | 4.8 | 0.00 | 0.05 | 0.00 | 56 | 1011.3 |
| 20260507142355 | 13 | 343 | 0.0 | 3.2 | 0.00 | 0.05 | 0.00 | 58 | 1011.5 |
| 20260507142350 | 13 | 293 | 0.0 | 4.8 | 0.00 | 0.05 | 0.00 | 56 | 1011.2 |
| 20260507141349 | 13 | 233 | 0.0 | 3.2 | 0.00 | 0.05 | 0.00 | 56 | 1011.5 |
| 20260507140851 | 12 | 330 | 1.6 | 3.2 | 0.00 | 0.05 | 0.00 | 55 | 1011.5 |
| 20260507140349 | 12 | 326 | 1.6 | 3.2 | 0.00 | 0.05 | 0.00 | 55 | 1011.6 |
| 20260507135850 | 12 | 334 | 0.0 | 3.2 | 0.00 | 0.05 | 0.00 | 54 | 1011.7 |
| 20260507135350 | 12 | 303 | 0.0 | 4.8 | 0.00 | 0.05 | 0.00 | 56 | 1011.7 |
| 20260507134855 | 12 | 313 | 0.0 | 8.0 | 0.00 | 0.05 | 0.00 | 56 | 1011.8 |
| 20260507134850 | 12 | 336 | 0.0 | 6.4 | 0.00 | 0.05 | 0.00 | 56 | 1011.7 |
| 20260507133851 | 12 | 338 | 3.2 | 8.0 | 0.00 | 0.05 | 0.00 | 56 | 1011.8 |
| 20260507133349 | 12 | 324 | 1.6 | 4.8 | 0.00 | 0.05 | 0.00 | 57 | 1011.8 |
| 20260507132848 | 12 | 326 | 1.6 | 4.8 | 0.00 | 0.05 | 0.00 | 57 | 1011.9 |
| 20260507132349 | 12 | 327 | 0.0 | 8.0 | 0.00 | 0.05 | 0.00 | 57 | 1011.9 |
| 20260507131849 | 12 | 20 | 0.0 | 8.0 | 0.00 | 0.05 | 0.00 | 60 | 1012.0 |
| 20260507131350 | 12 | 255 | 0.0 | 4.8 | 0.00 | 0.05 | 0.00 | 58 | 1011.9 |
| 20260507130853 | 12 | 245 | 0.0 | 6.4 | 0.00 | 0.05 | 0.00 | 59 | 1012.0 |
| 20260507130848 | 12 | 312 | 1.6 | 6.4 | 0.00 | 0.05 | 0.00 | 58 | 1011.9 |
| 20260507125853 | 12 | 358 | 0.0 | 8.0 | 0.00 | 0.05 | 0.00 | 60 | 1012.1 |
| 20260507125848 | 12 | 345 | 0.0 | 6.4 | 0.00 | 0.05 | 0.00 | 59 | 1011.9 |
| 20260507124846 | 12 | 344 | 1.6 | 8.0 | 0.00 | 0.05 | 0.00 | 61 | 1012.1 |
| 20260507124348 | 12 | 330 | 1.6 | 8.0 | 0.00 | 0.05 | 0.00 | 60 | 1012.0 |
| 20260507123855 | 11 | 323 | 3.2 | 6.4 | 0.00 | 0.05 | 0.00 | 61 | 1011.7 |
| 20260507123848 | 12 | 330 | 3.2 | 8.0 | 0.00 | 0.05 | 0.00 | 61 | 1011.9 |
| 20260507122848 | 11 | 329 | 1.6 | 6.4 | 0.00 | 0.05 | 0.00 | 62 | 1011.7 |
| 20260507122346 | 11 | 316 | 0.0 | 4.8 | 0.00 | 0.05 | 0.00 | 64 | 1011.7 |
| 20260507121847 | 11 | 345 | 0.0 | 4.8 | 0.00 | 0.05 | 0.00 | 63 | 1011.8 |
| 20260507121348 | 11 | 327 | 1.6 | 4.8 | 0.00 | 0.05 | 0.00 | 65 | 1011.8 |
| 20260507120852 | 11 | 344 | 1.6 | 6.4 | 0.00 | 0.05 | 0.00 | 66 | 1011.5 |
| 20260507120846 | 11 | 334 | 1.6 | 6.4 | 0.00 | 0.05 | 0.00 | 64 | 1011.6 |
| 20260507115846 | 11 | 333 | 1.6 | 4.8 | 0.00 | 0.05 | 0.00 | 67 | 1011.4 |
| 20260507115347 | 11 | 344 | 0.0 | 4.8 | 0.00 | 0.05 | 0.00 | 67 | 1011.5 |
| 20260507114845 | 11 | 338 | 0.0 | 1.6 | 0.00 | 0.05 | 0.00 | 68 | 1011.5 |
| 20260507114347 | 11 | 334 | 0.0 | 3.2 | 0.00 | 0.05 | 0.00 | 68 | 1011.4 |
| 20260507113855 | 11 | 241 | 0.0 | 1.6 | 0.00 | 0.05 | 0.00 | 69 | 1011.5 |
| 20260507113846 | 11 | 344 | 0.0 | 3.2 | 0.00 | 0.05 | 0.00 | 68 | 1011.4 |
| 20260507113348 | 11 | 317 | 0.0 | 3.2 | 0.00 | 0.05 | 0.00 | 69 | 1011.3 |
| 20260507112347 | 11 | 337 | 1.6 | 1.6 | 0.00 | 0.05 | 0.00 | 75 | 1011.4 |
| 20260507111847 | -17 | 0.0 | 0.0 | 0.00 | 0.05 | 0.00 | 1011.5 | ||
| 20260507111346 | -17 | 0.0 | 0.0 | 0.00 | 0.05 | 0.00 | 1011.5 | ||
| 20260507110846 | -17 | 0.0 | 0.0 | 0.00 | 0.05 | 0.00 | 1011.5 | ||
| 20260507110348 | -17 | 0.0 | 0.0 | 0.00 | 0.05 | 0.00 | 1011.4 | ||
| 20260507110344 | -17 | 0.0 | 0.0 | 0.00 | 0.05 | 0.00 | 1011.5 | ||
| 20260507105951 | -17 | 0.0 | 0.0 | 0.00 | 0.05 | 0.00 | 1011.4 | ||
| 20260507104841 | -17 | 0.0 | 0.0 | 0.00 | 0.05 | 0.00 | 1011.3 | ||
| 20260507104340 | -17 | 0.0 | 0.0 | 0.00 | 0.05 | 0.00 | 1011.2 | ||
| 20260507103839 | -17 | 0.0 | 0.0 | 0.00 | 0.05 | 0.00 | 1011.0 | ||
| 20260507103337 | -17 | 0.0 | 0.0 | 0.00 | 0.05 | 0.00 | 1010.8 | ||
| 20260507102838 | -17 | 0.0 | 0.0 | 0.00 | 0.05 | 0.00 | 1010.9 | ||
| 20260507102336 | -17 | 0.0 | 0.0 | 0.00 | 0.05 | 0.00 | 1011.0 | ||
| 20260507101836 | -17 | 0.0 | 0.0 | 0.00 | 0.05 | 0.00 | 1010.8 | ||
| 20260507101334 | -17 | 0.0 | 0.0 | 0.00 | 0.05 | 0.00 | 1010.7 | ||
| 20260507100838 | -17 | 0.0 | 0.0 | 0.00 | 0.05 | 0.00 | 1010.6 | ||
| 20260507100834 | -17 | 0.0 | 0.0 | 0.00 | 0.05 | 0.00 | 1010.8 | ||
| 20260507095836 | -17 | 0.0 | 0.0 | 0.00 | 0.05 | 0.00 | 1010.6 | ||
| 20260507095832 | -17 | 0.0 | 0.0 | 0.00 | 0.05 | 0.00 | 1010.8 | ||
| 20260507095436 | -17 | 0.0 | 0.0 | 0.00 | 0.05 | 0.00 | 1010.3 | ||
| 20260507094332 | -17 | 0.0 | 0.0 | 0.00 | 0.05 | 0.00 | 1010.3 | ||
| 20260507094329 | -17 | 0.0 | 0.0 | 0.00 | 0.05 | 0.00 | 1010.4 | ||
| 20260507093326 | -17 | 0.0 | 0.0 | 0.00 | 0.05 | 0.00 | 1010.4 | ||
| 20260507092830 | -17 | 0.0 | 0.0 | 0.00 | 0.05 | 0.00 | 1010.3 | ||
| 20260507092826 | -17 | 0.0 | 0.0 | 0.00 | 0.05 | 0.00 | 1010.3 | ||
| 20260507091823 | -17 | 0.0 | 0.0 | 0.00 | 0.05 | 0.00 | 1010.5 | ||
| 20260507091323 | -17 | 0.0 | 0.0 | 0.00 | 0.05 | 0.00 | 1010.4 | ||
| 20260507090823 | -17 | 0.0 | 0.0 | 0.00 | 0.05 | 0.00 | 1010.4 | ||
| 20260507090326 | -17 | 0.0 | 0.0 | 0.00 | 0.05 | 0.00 | 1010.3 | ||
| 20260507090322 | -17 | 0.0 | 0.0 | 0.00 | 0.05 | 0.00 | 1010.3 | ||
| 20260507085927 | -17 | 0.0 | 0.0 | 0.00 | 0.05 | 0.00 | 1010.4 | ||
| 20260507085426 | -17 | 0.0 | 0.0 | 0.00 | 0.05 | 0.00 | 1010.4 | ||
| 20260507084318 | -17 | 0.0 | 0.0 | 0.00 | 0.05 | 0.00 | 1010.4 | ||
| 20260507083818 | -17 | 0.0 | 4.8 | 0.00 | 0.05 | 0.00 | 1010.2 | ||
| 20260507083320 | 12 | 348 | 0.0 | 8.0 | 0.00 | 0.05 | 0.00 | 76 | 1010.3 |
| 20260507083316 | 16 | 337 | 0.0 | 4.8 | 0.00 | 0.05 | 0.00 | 75 | 1010.3 |
| 20260507082814 | 12 | 316 | 0.0 | 6.4 | 0.00 | 0.05 | 0.00 | 76 | 1010.3 |
| 20260507082432 | 12 | 337 | 1.6 | 8.0 | 0.00 | 0.05 | 0.00 | 75 | 1010.2 |
| 20260507081314 | 12 | 331 | 3.2 | 8.0 | 0.00 | 0.05 | 0.00 | 75 | 1010.1 |
| 20260507080813 | 12 | 341 | 1.6 | 8.0 | 0.00 | 0.05 | 0.00 | 78 | 1009.9 |
| 20260507080315 | 12 | 296 | 3.2 | 6.4 | 0.00 | 0.05 | 0.00 | 79 | 1009.8 |
| 20260507075812 | 12 | 334 | 0.0 | 8.0 | 0.00 | 0.05 | 0.00 | 80 | 1009.7 |
| 20260507075314 | 12 | 330 | 1.6 | 8.0 | 0.00 | 0.05 | 0.00 | 80 | 1009.6 |
| 20260507074811 | 13 | 331 | 1.6 | 4.8 | 0.00 | 0.05 | 0.00 | 80 | 1009.7 |
| 20260507074314 | 13 | 314 | 0.0 | 4.8 | 0.00 | 0.05 | 0.00 | 80 | 1009.6 |
| 20260507073813 | 13 | 326 | 1.6 | 4.8 | 0.00 | 0.05 | 0.00 | 80 | 1009.6 |
| 20260507073314 | 13 | 331 | 0.0 | 3.2 | 0.00 | 0.05 | 0.00 | 80 | 1009.6 |
| 20260507072812 | 13 | 317 | 0.0 | 4.8 | 0.00 | 0.05 | 0.00 | 80 | 1009.7 |
| 20260507072317 | 13 | 353 | 1.6 | 4.8 | 0.00 | 0.05 | 0.00 | 80 | 1009.6 |
| 20260507072312 | 13 | 330 | 1.6 | 4.8 | 0.00 | 0.05 | 0.00 | 80 | 1009.3 |
| 20260507071317 | 13 | 355 | 1.6 | 6.4 | 0.00 | 0.05 | 0.00 | 79 | 1009.6 |
| 20260507071311 | 13 | 336 | 0.0 | 8.0 | 0.00 | 0.05 | 0.00 | 79 | 1009.6 |
| 20260507070811 | 13 | 323 | 1.6 | 8.0 | 0.00 | 0.05 | 0.00 | 79 | 1009.6 |
| 20260507065817 | 13 | 337 | 0.0 | 4.8 | 0.00 | 0.05 | 0.00 | 79 | 1009.7 |
| 20260507065812 | 13 | 331 | 3.2 | 4.8 | 0.00 | 0.05 | 0.00 | 79 | 1009.6 |
| 20260507064811 | 13 | 309 | 1.6 | 6.4 | 0.00 | 0.05 | 0.00 | 79 | 1009.8 |
| 20260507064312 | 13 | 345 | 3.2 | 6.4 | 0.00 | 0.05 | 0.00 | 79 | 1009.9 |
| 20260507063810 | 13 | 344 | 1.6 | 4.8 | 0.00 | 0.05 | 0.00 | 79 | 1010.0 |
| 20260507063312 | 13 | 321 | 0.0 | 6.4 | 0.00 | 0.05 | 0.00 | 80 | 1010.0 |
| 20260507062810 | 13 | 309 | 0.0 | 6.4 | 0.00 | 0.05 | 0.00 | 80 | 1010.1 |
| 20260507062311 | 13 | 248 | 0.0 | 3.2 | 0.00 | 0.05 | 0.00 | 80 | 1010.1 |
| 20260507061810 | 13 | 336 | 1.6 | 4.8 | 0.00 | 0.05 | 0.00 | 79 | 1010.2 |
| 20260507061310 | 13 | 258 | 0.0 | 4.8 | 0.00 | 0.05 | 0.00 | 79 | 1010.1 |
| 20260507060811 | 13 | 306 | 1.6 | 4.8 | 0.00 | 0.05 | 0.00 | 78 | 1010.0 |
| 20260507060316 | 13 | 326 | 1.6 | 8.0 | 0.00 | 0.05 | 0.00 | 78 | 1010.1 |
| 20260507060311 | 13 | 289 | 0.0 | 8.0 | 0.00 | 0.05 | 0.00 | 78 | 1010.0 |
| 20260507055311 | 13 | 330 | 0.0 | 6.4 | 0.00 | 0.05 | 0.00 | 78 | 1010.1 |
| 20260507054811 | 13 | 262 | 0.0 | 8.0 | 0.00 | 0.05 | 0.00 | 77 | 1010.0 |
| 20260507054314 | 13 | 319 | 0.0 | 4.8 | 0.00 | 0.05 | 0.00 | 78 | 1009.7 |
| 20260507054310 | 13 | 324 | 1.6 | 8.0 | 0.00 | 0.05 | 0.00 | 78 | 1009.8 |
| 20260507053311 | 13 | 300 | 1.6 | 8.0 | 0.00 | 0.05 | 0.00 | 78 | 1009.7 |
| 20260507052812 | 13 | 340 | 0.0 | 8.0 | 0.00 | 0.05 | 0.00 | 77 | 1009.8 |
| 20260507052311 | 13 | 329 | 0.0 | 4.8 | 0.00 | 0.05 | 0.00 | 77 | 1009.7 |
| 20260507051811 | 13 | 309 | 0.0 | 4.8 | 0.00 | 0.05 | 0.00 | 79 | 1010.0 |
| 20260507051308 | 13 | 319 | 0.0 | 4.8 | 0.00 | 0.05 | 0.00 | 79 | 1009.9 |
| 20260507050809 | 13 | 338 | 1.6 | 6.4 | 0.00 | 0.05 | 0.00 | 79 | 1009.8 |
| 20260507050308 | 13 | 344 | 1.6 | 6.4 | 0.00 | 0.05 | 0.00 | 80 | 1010.1 |
| 20260507045808 | 13 | 324 | 0.0 | 9.7 | 0.00 | 0.05 | 0.00 | 80 | 1010.1 |
| 20260507045309 | 13 | 358 | 0.0 | 9.7 | 0.00 | 0.05 | 0.00 | 80 | 1010.0 |
| 20260507044809 | 13 | 266 | 1.6 | 6.4 | 0.00 | 0.05 | 0.00 | 80 | 1009.9 |
| 20260507044309 | 13 | 321 | 1.6 | 6.4 | 0.00 | 0.05 | 0.00 | 80 | 1009.7 |
| 20260507043808 | 13 | 343 | 0.0 | 6.4 | 0.00 | 0.05 | 0.00 | 80 | 1009.3 |
| 20260507043308 | 14 | 312 | 3.2 | 14.5 | 0.00 | 0.05 | 0.00 | 80 | 1009.8 |
| 20260507042808 | 14 | 331 | 4.8 | 14.5 | 0.00 | 0.05 | 0.00 | 80 | 1010.1 |
| 20260507042307 | 14 | 327 | 3.2 | 8.0 | 0.00 | 0.05 | 0.00 | 81 | 1010.0 |
| 20260507041809 | 14 | 319 | 0.0 | 9.7 | 0.00 | 0.05 | 0.00 | 82 | 1010.1 |
| 20260507041309 | 14 | 326 | 3.2 | 11.3 | 0.00 | 0.05 | 0.00 | 81 | 1009.9 |
| 20260507040808 | 14 | 334 | 1.6 | 11.3 | 0.00 | 0.05 | 0.00 | 81 | 1009.2 |
| 20260507040309 | 14 | 264 | 1.6 | 11.3 | 0.00 | 0.05 | 0.00 | 81 | 1009.4 |
| 20260507035807 | 14 | 351 | 4.8 | 11.3 | 0.00 | 0.05 | 0.43 | 81 | 1009.4 |
| 20260507035307 | 15 | 336 | 3.2 | 8.0 | 0.00 | 0.05 | 0.43 | 81 | 1009.7 |
| 20260507034813 | 15 | 336 | 1.6 | 14.5 | 0.00 | 0.05 | 0.43 | 81 | 1009.4 |
| 20260507034807 | 15 | 337 | 1.6 | 14.5 | 0.00 | 0.05 | 0.43 | 81 | 1009.4 |
| 20260507033807 | 15 | 336 | 1.6 | 11.3 | 0.00 | 0.05 | 0.43 | 80 | 1009.2 |
| 20260507033307 | 15 | 344 | 4.8 | 14.5 | 0.00 | 0.05 | 0.43 | 80 | 1009.2 |
| 20260507032808 | 15 | 337 | 4.8 | 14.5 | 0.00 | 0.05 | 0.43 | 80 | 1009.3 |
| 20260507032308 | 15 | 316 | 3.2 | 14.5 | 0.00 | 0.05 | 0.43 | 81 | 1009.2 |
| 20260507031807 | 15 | 334 | 4.8 | 14.5 | 0.00 | 0.05 | 0.43 | 80 | 1009.4 |
| 20260507031311 | 15 | 331 | 1.6 | 9.7 | 0.00 | 0.05 | 0.43 | 80 | 1009.2 |
| 20260507031307 | 15 | 334 | 3.2 | 8.0 | 0.00 | 0.05 | 0.43 | 80 | 1009.3 |
| 20260507030307 | 15 | 320 | 3.2 | 9.7 | 0.00 | 0.05 | 0.43 | 80 | 1009.3 |
| 20260507025806 | 15 | 344 | 3.2 | 6.4 | 0.00 | 0.05 | 0.43 | 80 | 1009.0 |
| 20260507025306 | 15 | 331 | 1.6 | 14.5 | 0.00 | 0.05 | 0.43 | 80 | 1008.8 |
| 20260507024807 | 15 | 336 | 3.2 | 14.5 | 0.00 | 0.05 | 0.43 | 81 | 1008.8 |
| 20260507024306 | 15 | 337 | 3.2 | 9.7 | 0.00 | 0.05 | 0.43 | 81 | 1008.9 |
| 20260507023806 | 16 | 327 | 3.2 | 9.7 | 0.00 | 0.05 | 0.43 | 81 | 1008.9 |
| 20260507023305 | 16 | 329 | 1.6 | 6.4 | 0.00 | 0.05 | 0.43 | 82 | 1008.8 |
| 20260507022805 | 16 | 336 | 3.2 | 9.7 | 0.00 | 0.05 | 0.43 | 82 | 1008.8 |
| 20260507022310 | 16 | 330 | 3.2 | 6.4 | 0.00 | 0.05 | 0.43 | 84 | 1008.6 |
| 20260507022306 | 16 | 326 | 4.8 | 9.7 | 0.00 | 0.05 | 0.43 | 83 | 1008.6 |
| 20260507021927 | 16 | 326 | 0.0 | 6.4 | 0.00 | 0.05 | 0.43 | 84 | 1008.6 |
| 20260507021305 | 16 | 344 | 0.0 | 3.2 | 0.00 | 0.05 | 0.43 | 84 | 1008.9 |
| 20260507020306 | 16 | 337 | 0.0 | 6.4 | 0.00 | 0.05 | 0.43 | 84 | 1008.6 |
| 20260507015805 | 16 | 306 | 3.2 | 6.4 | 0.00 | 0.05 | 0.43 | 84 | 1008.6 |
| 20260507015306 | 16 | 327 | 1.6 | 4.8 | 0.00 | 0.05 | 0.43 | 85 | 1008.7 |
| 20260507014805 | 16 | 233 | 0.0 | 6.4 | 0.00 | 0.05 | 0.43 | 85 | 1008.8 |
| 20260507014309 | 16 | 327 | 0.0 | 6.4 | 0.00 | 0.05 | 0.43 | 85 | 1008.5 |
| 20260507014305 | 16 | 330 | 1.6 | 6.4 | 0.00 | 0.05 | 0.43 | 85 | 1008.8 |
| 20260507013312 | 16 | 357 | 0.0 | 6.4 | 0.00 | 0.05 | 0.43 | 84 | 1008.3 |
| 20260507013305 | 16 | 289 | 1.6 | 6.4 | 0.00 | 0.05 | 0.43 | 85 | 1008.3 |
| 20260507012805 | 16 | 354 | 1.6 | 6.4 | 0.00 | 0.05 | 0.43 | 85 | 1008.3 |
| 20260507011810 | 16 | 336 | 3.2 | 6.4 | 0.00 | 0.05 | 0.43 | 85 | 1008.5 |
| 20260507011805 | 16 | 333 | 0.0 | 4.8 | 0.00 | 0.05 | 0.43 | 84 | 1008.3 |
| 20260507010810 | 17 | 338 | 4.8 | 14.5 | 0.00 | 0.05 | 0.43 | 85 | 1008.7 |
| 20260507010805 | 16 | 334 | 4.8 | 8.0 | 0.00 | 0.05 | 0.43 | 85 | 1008.6 |
| 20260507010304 | 16 | 344 | 3.2 | 14.5 | 0.00 | 0.05 | 0.43 | 85 | 1008.7 |
| 20260507005305 | 17 | 326 | 1.6 | 11.3 | 0.00 | 0.05 | 0.43 | 85 | 1008.7 |
| 20260507004804 | 17 | 317 | 0.0 | 8.0 | 0.00 | 0.05 | 0.43 | 86 | 1008.7 |
| 20260507004303 | 17 | 244 | 1.6 | 8.0 | 0.00 | 0.05 | 0.43 | 85 | 1008.6 |
| 20260507003803 | 17 | 307 | 0.0 | 4.8 | 0.00 | 0.05 | 0.43 | 86 | 1008.4 |
| 20260507003302 | 17 | 309 | 0.0 | 4.8 | 0.00 | 0.05 | 0.43 | 86 | 1008.5 |
| 20260507002803 | 17 | 326 | 1.6 | 4.8 | 0.00 | 0.05 | 0.43 | 86 | 1008.6 |
| 20260507002307 | 18 | 344 | 0.0 | 6.4 | 0.03 | 0.05 | 0.43 | 86 | 1008.2 |
| 20260507002305 | 17 | 333 | 1.6 | 6.4 | 0.00 | 0.05 | 0.43 | 86 | 1008.4 |
| 20260507001308 | 18 | 320 | 0.0 | 6.4 | 0.05 | 0.05 | 0.43 | 87 | 1008.1 |
| 20260507001303 | 18 | 336 | 0.0 | 6.4 | 0.03 | 0.05 | 0.43 | 87 | 1008.0 |
| 20260507000923 | 18 | 338 | 1.6 | 4.8 | 0.05 | 0.05 | 0.43 | 88 | 1008.0 |
| 20260506235801 | 18 | 20 | 1.6 | 4.8 | 0.05 | 0.05 | 0.43 | 89 | 1007.9 |
| 20260506235306 | 18 | 327 | 0.0 | 0.0 | 0.05 | 0.05 | 0.43 | 90 | 1007.7 |
| 20260506234802 | 18 | 337 | 0.0 | 0.0 | 0.05 | 0.05 | 0.43 | 90 | 1007.8 |
| 20260506234302 | 18 | 336 | 0.0 | 1.6 | 0.05 | 0.05 | 0.43 | 90 | 1007.6 |
| 20260506233805 | 18 | 334 | 0.0 | 3.2 | 0.05 | 0.05 | 0.43 | 89 | 1007.3 |
| 20260506233801 | 18 | 336 | 0.0 | 1.6 | 0.05 | 0.05 | 0.43 | 89 | 1007.5 |
| 20260506232808 | 20 | 145 | 0.0 | 1.6 | 0.03 | 0.03 | 0.43 | 87 | 1007.2 |
| 20260506232803 | 19 | 245 | 0.0 | 3.2 | 0.05 | 0.05 | 0.43 | 88 | 1007.1 |
| 20260506232301 | 19 | 302 | 0.0 | 3.2 | 0.05 | 0.05 | 0.43 | 88 | 1006.8 |
| 20260506231303 | 20 | 154 | 0.0 | 0.0 | 0.03 | 0.03 | 0.43 | 87 | 1006.9 |
| 20260506230801 | 20 | 154 | 0.0 | 0.0 | 0.00 | 0.00 | 0.41 | 84 | 1006.8 |
| 20260506230301 | 20 | 154 | 0.0 | 0.0 | 0.00 | 0.00 | 0.41 | 83 | 1006.5 |
| 20260506225801 | 21 | 154 | 0.0 | 0.0 | 0.00 | 0.00 | 0.41 | 82 | 1006.6 |
| 20260506225300 | 21 | 154 | 0.0 | 0.0 | 0.00 | 0.00 | 0.41 | 82 | 1006.6 |
| 20260506224801 | 21 | 141 | 0.0 | 0.0 | 0.00 | 0.00 | 0.41 | 81 | 1006.7 |
| 20260506224301 | 21 | 141 | 0.0 | 0.0 | 0.00 | 0.00 | 0.41 | 81 | 1006.6 |
| 20260506223800 | 21 | 141 | 0.0 | 0.0 | 0.00 | 0.00 | 0.41 | 81 | 1006.6 |
| 20260506223300 | -17 | 0.0 | 0.0 | 0.00 | 0.00 | 0.41 | 1006.5 | ||
| 20260506222110 | 21 | 134 | 0.0 | 3.2 | 0.00 | 0.41 | 0.41 | 79 | 1006.6 |
| 20260506221610 | 21 | 159 | 0.0 | 3.2 | 0.00 | 0.41 | 0.41 | 79 | 1006.5 |
| 20260506221111 | 21 | 164 | 0.0 | 3.2 | 0.00 | 0.41 | 0.41 | 81 | 1006.6 |
| 20260506220609 | 21 | 151 | 0.0 | 1.6 | 0.00 | 0.41 | 0.41 | 82 | 1006.4 |
| 20260506220113 | 21 | 145 | 0.0 | 0.0 | 0.00 | 0.41 | 0.41 | 84 | 1006.6 |
| 20260506220108 | 21 | 140 | 0.0 | 1.6 | 0.00 | 0.41 | 0.41 | 83 | 1006.3 |
| 20260506215112 | 20 | 188 | 0.0 | 3.2 | 0.00 | 0.41 | 0.41 | 83 | 1006.5 |
| 20260506215108 | 20 | 138 | 0.0 | 3.2 | 0.00 | 0.41 | 0.41 | 83 | 1006.5 |
| 20260506214109 | 20 | 172 | 0.0 | 0.0 | 0.00 | 0.41 | 0.41 | 82 | 1006.6 |
| 20260506213612 | 21 | 128 | 0.0 | 3.2 | 0.00 | 0.41 | 0.41 | 81 | 1006.5 |
| 20260506213608 | 21 | 128 | 0.0 | 0.0 | 0.00 | 0.41 | 0.41 | 82 | 1006.6 |
| 20260506212609 | 21 | 216 | 0.0 | 3.2 | 0.00 | 0.41 | 0.41 | 81 | 1006.5 |
| 20260506212108 | 21 | 123 | 0.0 | 1.6 | 0.00 | 0.41 | 0.41 | 82 | 1006.3 |
| 20260506211608 | 21 | 148 | 0.0 | 0.0 | 0.00 | 0.41 | 0.41 | 82 | 1006.2 |
| 20260506211108 | 20 | 148 | 0.0 | 1.6 | 0.00 | 0.41 | 0.41 | 83 | 1006.2 |
| 20260506210610 | 20 | 188 | 0.0 | 1.6 | 0.00 | 0.41 | 0.41 | 83 | 1006.0 |
| 20260506210109 | 20 | 135 | 0.0 | 3.2 | 0.00 | 0.41 | 0.41 | 83 | 1006.0 |
| 20260506205613 | 20 | 138 | 0.0 | 1.6 | 0.00 | 0.41 | 0.41 | 83 | 1006.1 |
| 20260506205608 | 20 | 148 | 0.0 | 3.2 | 0.00 | 0.41 | 0.41 | 82 | 1006.1 |
| 20260506204609 | 20 | 159 | 0.0 | 3.2 | 0.00 | 0.41 | 0.41 | 82 | 1006.0 |
| 20260506204108 | 20 | 162 | 0.0 | 4.8 | 0.00 | 0.41 | 0.41 | 82 | 1005.9 |
| 20260506203607 | 20 | 196 | 0.0 | 4.8 | 0.00 | 0.41 | 0.41 | 82 | 1005.9 |
| 20260506203108 | 20 | 151 | 0.0 | 4.8 | 0.00 | 0.41 | 0.41 | 83 | 1006.0 |
| 20260506202609 | 20 | 148 | 0.0 | 4.8 | 0.00 | 0.41 | 0.41 | 82 | 1005.7 |
| 20260506202108 | 20 | 128 | 0.0 | 6.4 | 0.00 | 0.41 | 0.41 | 82 | 1006.0 |
| 20260506201608 | 20 | 134 | 0.0 | 8.0 | 0.00 | 0.41 | 0.41 | 83 | 1006.0 |
| 20260506201108 | 20 | 157 | 3.2 | 8.0 | 0.00 | 0.41 | 0.41 | 82 | 1005.9 |
| 20260506200606 | 20 | 151 | 1.6 | 6.4 | 0.00 | 0.41 | 0.41 | 82 | 1005.9 |
| 20260506200109 | 20 | 138 | 1.6 | 9.7 | 0.00 | 0.41 | 0.41 | 82 | 1006.0 |
| 20260506195607 | 20 | 144 | 3.2 | 9.7 | 0.00 | 0.41 | 0.41 | 81 | 1006.1 |
| 20260506195106 | 20 | 151 | 1.6 | 6.4 | 0.00 | 0.41 | 0.41 | 82 | 1006.0 |
| 20260506194607 | 20 | 182 | 3.2 | 6.4 | 0.00 | 0.41 | 0.41 | 81 | 1006.1 |
| 20260506194106 | 21 | 138 | 0.0 | 9.7 | 0.00 | 0.41 | 0.41 | 81 | 1006.1 |
| 20260506193607 | 20 | 151 | 3.2 | 9.7 | 0.00 | 0.41 | 0.41 | 81 | 1006.1 |
| 20260506193110 | 21 | 192 | 3.2 | 9.7 | 0.00 | 0.41 | 0.41 | 80 | 1006.2 |
| 20260506193106 | 21 | 165 | 4.8 | 9.7 | 0.00 | 0.41 | 0.41 | 80 | 1006.0 |
| 20260506192720 | 21 | 173 | 6.4 | 9.7 | 0.00 | 0.41 | 0.41 | 79 | 1006.2 |
| 20260506191605 | 21 | 189 | 4.8 | 9.7 | 0.00 | 0.41 | 0.41 | 79 | 1006.2 |
| 20260506191105 | 21 | 133 | 4.8 | 9.7 | 0.00 | 0.41 | 0.41 | 80 | 1006.2 |
| 20260506190606 | 21 | 144 | 4.8 | 9.7 | 0.00 | 0.41 | 0.41 | 80 | 1006.2 |
| 20260506190105 | 21 | 128 | 0.0 | 9.7 | 0.00 | 0.41 | 0.41 | 82 | 1006.2 |
| 20260506185606 | 21 | 120 | 6.4 | 9.7 | 0.00 | 0.41 | 0.41 | 81 | 1006.2 |
| 20260506185106 | 20 | 230 | 4.8 | 9.7 | 0.00 | 0.41 | 0.41 | 82 | 1006.2 |
| 20260506184606 | 20 | 166 | 3.2 | 9.7 | 0.00 | 0.41 | 0.41 | 82 | 1006.2 |
| 20260506184105 | 20 | 125 | 3.2 | 9.7 | 0.00 | 0.41 | 0.41 | 84 | 1006.2 |
| 20260506183605 | 20 | 137 | 3.2 | 9.7 | 0.00 | 0.41 | 0.41 | 83 | 1006.5 |
| 20260506183104 | 20 | 161 | 4.8 | 9.7 | 0.00 | 0.41 | 0.41 | 84 | 1006.5 |
| 20260506182604 | 20 | 241 | 4.8 | 11.3 | 0.00 | 0.41 | 0.41 | 83 | 1006.6 |
| 20260506182105 | 20 | 151 | 4.8 | 17.7 | 0.00 | 0.41 | 0.41 | 83 | 1006.5 |
| 20260506181605 | 20 | 180 | 6.4 | 17.7 | 0.00 | 0.41 | 0.41 | 83 | 1006.5 |
| 20260506181104 | 20 | 145 | 4.8 | 9.7 | 0.00 | 0.41 | 0.41 | 84 | 1006.4 |
| 20260506180605 | 19 | 92 | 4.8 | 9.7 | 0.00 | 0.41 | 0.41 | 84 | 1006.5 |
| 20260506180105 | 19 | 114 | 4.8 | 11.3 | 0.00 | 0.41 | 0.41 | 84 | 1006.6 |
| 20260506175604 | 19 | 158 | 6.4 | 11.3 | 0.00 | 0.41 | 0.41 | 84 | 1006.6 |
| 20260506175104 | 20 | 180 | 3.2 | 17.7 | 0.00 | 0.41 | 0.41 | 83 | 1006.6 |
| 20260506174604 | 20 | 133 | 4.8 | 17.7 | 0.00 | 0.41 | 0.41 | 83 | 1006.8 |
| 20260506174103 | 20 | 123 | 3.2 | 14.5 | 0.00 | 0.41 | 0.41 | 84 | 1006.7 |
| 20260506173604 | 20 | 131 | 6.4 | 16.1 | 0.00 | 0.41 | 0.41 | 84 | 1006.8 |
| 20260506173103 | 20 | 161 | 8.0 | 16.1 | 0.00 | 0.41 | 0.41 | 84 | 1006.8 |
| 20260506172603 | 20 | 144 | 6.4 | 17.7 | 0.00 | 0.41 | 0.41 | 84 | 1006.7 |
| 20260506172104 | 20 | 168 | 8.0 | 17.7 | 0.00 | 0.41 | 0.41 | 83 | 1006.7 |
| 20260506171603 | 20 | 161 | 6.4 | 17.7 | 0.00 | 0.41 | 0.41 | 84 | 1006.7 |
| 20260506171102 | 20 | 120 | 8.0 | 16.1 | 0.00 | 0.41 | 0.41 | 85 | 1006.6 |
| 20260506170605 | 19 | 151 | 3.2 | 9.7 | 0.00 | 0.41 | 0.41 | 87 | 1006.6 |
| 20260506165602 | 18 | 185 | 4.8 | 16.1 | 0.00 | 0.41 | 0.41 | 87 | 1006.7 |
| 20260506165103 | 18 | 127 | 6.4 | 16.1 | 0.00 | 0.41 | 0.41 | 87 | 1006.8 |
| 20260506164603 | 18 | 202 | 6.4 | 14.5 | 0.00 | 0.41 | 0.41 | 87 | 1006.9 |
| 20260506164102 | 18 | 142 | 6.4 | 14.5 | 0.00 | 0.41 | 0.41 | 89 | 1006.8 |
| 20260506163603 | 18 | 175 | 6.4 | 14.5 | 0.00 | 0.41 | 0.41 | 89 | 1006.7 |
| 20260506163101 | 18 | 155 | 6.4 | 16.1 | 0.00 | 0.41 | 0.41 | 89 | 1006.8 |
| 20260506162603 | 17 | 128 | 8.0 | 16.1 | 0.00 | 0.41 | 0.41 | 90 | 1006.9 |
| 20260506162101 | 17 | 157 | 6.4 | 14.5 | 0.00 | 0.41 | 0.41 | 90 | 1006.9 |
| 20260506161602 | 17 | 154 | 8.0 | 16.1 | 0.00 | 0.41 | 0.41 | 90 | 1007.0 |
| 20260506161103 | 17 | 104 | 6.4 | 16.1 | 0.00 | 0.41 | 0.41 | 90 | 1007.0 |